EA2AFZ-W Weather Reports


time (UTC)temp
C
wind
direction
speed
KPH
gust
KPH
rain 1hr
cm
rain 24hr
cm
rain mn
cm
humidity
%
barometer
mb
20260508014511 11 320 17.7 17.7 0.00 0.00 0.00 77 1010.0
20260508011509 11 320 17.7 17.7 0.00 0.00 0.00 78 1010.0
20260508004506 12 320 17.7 17.7 0.00 0.00 0.00 78 1010.0
20260508001604 12 320 17.7 17.7 0.00 0.00 0.00 86 1010.0
20260507234602 12 320 17.7 17.7 0.00 0.00 0.00 82 1011.0
20260507231600 13 320 17.7 17.7 0.00 0.00 0.00 87 1011.0
20260507224557 13 320 17.7 17.7 0.00 0.00 0.00 85 1011.0
20260507221556 13 320 17.7 17.7 0.00 0.00 0.00 81 1011.0
20260507214553 13 320 17.7 17.7 0.00 0.00 0.00 71 1011.0
20260507211551 14 320 17.7 17.7 0.00 0.00 0.00 70 1010.0
20260507204549 14 320 17.7 17.7 0.00 0.00 0.00 64 1011.0
20260507201547 15 320 17.7 17.7 0.00 0.00 0.00 61 1010.0
20260507194545 15 320 17.7 17.7 0.00 0.00 0.00 58 1011.0
20260507191543 15 320 17.7 17.7 0.00 0.00 0.00 56 1010.0
20260507184540 15 320 17.7 17.7 0.00 0.00 0.00 62 1010.0
20260507181538 16 320 17.7 17.7 0.00 0.00 0.00 60 1009.0
20260507174536 16 320 17.7 17.7 0.00 0.00 0.00 57 1009.0
20260507171534 17 320 17.7 17.7 0.00 0.00 0.00 55 1009.0
20260507164532 18 320 19.3 19.3 0.00 0.00 0.00 47 1009.0
20260507161529 21 10 22.5 22.5 0.00 0.00 0.00 47 1009.0
20260507154527 21 0 12.9 12.9 0.00 0.00 0.00 55 1009.0
20260507151525 21 70 17.7 17.7 0.00 0.00 0.00 56 1009.0
20260507144522 21 90 22.5 22.5 0.00 0.00 0.00 49 1009.0
20260507141521 21 70 17.7 17.7 0.00 0.00 0.00 49 1009.0
20260507134518 21 80 12.9 12.9 0.00 0.00 0.00 48 1009.0
20260507131516 22 0 6.4 6.4 0.00 0.00 0.00 47 1009.0
20260507124515 20 0 6.4 6.4 0.00 0.00 0.00 49 1009.0
20260507121512 19 0 4.8 4.8 0.00 0.00 0.00 52 1010.0
20260507114509 18 194 8.0 8.0 0.00 0.00 0.00 55 1010.0
20260507111509 18 194 8.0 8.0 0.00 0.00 0.00 54 1011.0
20260507104506 17 0 1.6 1.6 0.00 0.00 0.00 63 1011.0
20260507101604 16 59 3.2 3.2 0.00 0.00 0.00 65 1012.0
20260507094602 15 151 1.6 1.6 0.00 0.00 0.00 67 1012.0
20260507091559 15 151 1.6 1.6 0.00 0.00 0.00 69 1012.0
20260507084556 14 151 1.6 1.6 0.00 0.00 0.00 74 1012.0
20260507081555 13 151 1.6 1.6 0.00 0.00 0.00 78 1013.0
20260507074552 12 151 1.6 1.6 0.00 0.00 0.00 81 1013.0
20260507071551 12 151 1.6 1.6 0.00 0.00 0.00 83 1013.0
20260507064549 12 151 3.2 3.2 0.00 0.00 0.00 84 1013.0
20260507061546 7 320 17.7 17.7 0.00 0.00 0.00 83 1013.0
20260507054544 7 320 17.7 17.7 0.00 0.00 0.00 82 1013.0
20260507051541 7 320 17.7 17.7 0.00 0.00 0.00 82 1013.0
20260507044540 7 320 17.7 17.7 0.00 0.00 0.00 82 1013.0
20260507041538 7 320 17.7 17.7 0.00 0.00 0.00 82 1013.0
20260507034535 7 320 17.7 17.7 0.00 0.00 0.00 82 1013.0
20260507031534 7 320 17.7 17.7 0.00 0.00 0.00 82 1013.0
20260507024531 7 320 17.7 17.7 0.00 0.00 0.00 81 1014.0
20260507021529 8 320 17.7 17.7 0.00 0.00 0.00 80 1014.0